Year,Month,Day,Hour,Minute,Value (Times are PST for windspeed in km/hr)
2016,03,15,00,00,13.00
2016,03,15,00,01,11.20
2016,03,15,00,02,17.10
2016,03,15,00,03,15.10
2016,03,15,00,04,22.40
2016,03,15,00,05,20.40
2016,03,15,00,06,19.40
2016,03,15,00,07,20.90
2016,03,15,00,08,15.20
2016,03,15,00,09,13.50
2016,03,15,00,10,13.90
2016,03,15,00,11,16.60
2016,03,15,00,12,18.40
2016,03,15,00,13,15.80
2016,03,15,00,14,17.60
2016,03,15,00,15,18.70
2016,03,15,00,16,15.80
2016,03,15,00,17,15.00
2016,03,15,00,18,15.90
2016,03,15,00,19,14.40
2016,03,15,00,20,13.60
2016,03,15,00,21,22.00
2016,03,15,00,22,20.40
2016,03,15,00,23,16.60
2016,03,15,00,24,13.60
2016,03,15,00,25,15.10
2016,03,15,00,26,14.30
2016,03,15,00,27,10.30
2016,03,15,00,28,18.00
2016,03,15,00,29,15.50
2016,03,15,00,30,15.70
2016,03,15,00,31,18.40
2016,03,15,00,32,19.30
2016,03,15,00,33,14.80
2016,03,15,00,34,13.80
2016,03,15,00,35,16.30
2016,03,15,00,36,13.30
2016,03,15,00,37,14.00
2016,03,15,00,38,10.00
2016,03,15,00,39,11.00
2016,03,15,00,40,16.20
2016,03,15,00,41,12.30
2016,03,15,00,42,16.90
2016,03,15,00,43,14.90
2016,03,15,00,44,16.20
2016,03,15,00,45,14.60
2016,03,15,00,46,15.50
2016,03,15,00,47,15.10
2016,03,15,00,48,9.70
2016,03,15,00,49,12.50
2016,03,15,00,50,16.90
2016,03,15,00,51,19.50
2016,03,15,00,52,19.20
2016,03,15,00,53,17.90
2016,03,15,00,54,19.10
2016,03,15,00,55,17.50
2016,03,15,00,56,19.30
2016,03,15,00,57,14.00
2016,03,15,00,58,15.60
2016,03,15,00,59,13.20
2016,03,15,01,00,17.80
2016,03,15,01,01,20.70
2016,03,15,01,02,19.60
2016,03,15,01,03,14.70
2016,03,15,01,04,13.20
2016,03,15,01,05,12.70
2016,03,15,01,06,15.80
2016,03,15,01,07,9.80
2016,03,15,01,08,15.20
2016,03,15,01,09,12.20
2016,03,15,01,10,9.20
2016,03,15,01,11,10.30
2016,03,15,01,12,8.90
2016,03,15,01,13,10.10
2016,03,15,01,14,13.80
2016,03,15,01,15,9.80
2016,03,15,01,16,15.50
2016,03,15,01,17,18.20
2016,03,15,01,18,13.40
2016,03,15,01,19,16.70
2016,03,15,01,20,20.00
2016,03,15,01,21,13.40
2016,03,15,01,22,18.70
2016,03,15,01,23,13.40
2016,03,15,01,24,14.20
2016,03,15,01,25,17.40
2016,03,15,01,26,13.00
2016,03,15,01,27,17.70
2016,03,15,01,28,20.40
2016,03,15,01,29,19.60
2016,03,15,01,30,14.90
2016,03,15,01,31,14.90
2016,03,15,01,32,9.40
2016,03,15,01,33,15.10
2016,03,15,01,34,11.50
2016,03,15,01,35,9.70
2016,03,15,01,36,11.40
2016,03,15,01,37,14.70
2016,03,15,01,38,12.20
2016,03,15,01,39,15.90
2016,03,15,01,40,12.20
2016,03,15,01,41,11.90
2016,03,15,01,42,9.80
2016,03,15,01,43,10.20
2016,03,15,01,44,11.70
2016,03,15,01,45,10.50
2016,03,15,01,46,9.40
2016,03,15,01,47,10.70
2016,03,15,01,48,15.50
2016,03,15,01,49,12.00
2016,03,15,01,50,10.10
2016,03,15,01,51,8.90
2016,03,15,01,52,8.40
2016,03,15,01,53,7.10
2016,03,15,01,54,6.60
2016,03,15,01,55,11.20
2016,03,15,01,56,9.20
2016,03,15,01,57,8.30
2016,03,15,01,58,9.70
2016,03,15,01,59,12.80
2016,03,15,02,00,15.80
2016,03,15,02,01,11.70
2016,03,15,02,02,10.90
2016,03,15,02,03,14.50
2016,03,15,02,04,14.20
2016,03,15,02,05,11.70
2016,03,15,02,06,11.90
2016,03,15,02,07,10.50
2016,03,15,02,08,9.70
2016,03,15,02,09,9.50
2016,03,15,02,10,7.80
2016,03,15,02,11,7.20
2016,03,15,02,12,8.60
2016,03,15,02,13,11.90
2016,03,15,02,14,7.70
2016,03,15,02,15,8.10
2016,03,15,02,16,6.10
2016,03,15,02,17,12.10
2016,03,15,02,18,9.30
2016,03,15,02,19,10.30
2016,03,15,02,20,10.40
2016,03,15,02,21,8.90
2016,03,15,02,22,15.60
2016,03,15,02,23,13.50
2016,03,15,02,24,12.30
2016,03,15,02,25,16.80
2016,03,15,02,26,12.20
2016,03,15,02,27,13.30
2016,03,15,02,28,13.10
2016,03,15,02,29,12.90
2016,03,15,02,30,11.40
2016,03,15,02,31,16.70
2016,03,15,02,32,12.70
2016,03,15,02,33,16.50
2016,03,15,02,34,11.00
2016,03,15,02,35,8.80
2016,03,15,02,36,10.50
2016,03,15,02,37,14.40
2016,03,15,02,38,10.20
2016,03,15,02,39,15.20
2016,03,15,02,40,10.60
2016,03,15,02,41,9.40
2016,03,15,02,42,13.40
2016,03,15,02,43,12.70
2016,03,15,02,44,13.80
2016,03,15,02,45,10.50
2016,03,15,02,46,11.70
2016,03,15,02,47,9.60
2016,03,15,02,48,15.00
2016,03,15,02,49,9.70
2016,03,15,02,50,11.30
2016,03,15,02,51,9.90
2016,03,15,02,52,11.30
2016,03,15,02,53,12.00
2016,03,15,02,54,10.90
2016,03,15,02,55,6.80
2016,03,15,02,56,8.90
2016,03,15,02,57,7.50
2016,03,15,02,58,9.70
2016,03,15,02,59,10.40
2016,03,15,03,00,6.20
2016,03,15,03,01,11.30
2016,03,15,03,02,8.00
2016,03,15,03,03,13.30
2016,03,15,03,04,9.20
2016,03,15,03,05,11.10
2016,03,15,03,06,11.70
2016,03,15,03,07,6.70
2016,03,15,03,08,8.10
2016,03,15,03,09,11.30
2016,03,15,03,10,9.90
2016,03,15,03,11,7.20
2016,03,15,03,12,7.90
2016,03,15,03,13,10.10
2016,03,15,03,14,10.40
2016,03,15,03,15,9.40
2016,03,15,03,16,9.20
2016,03,15,03,17,10.90
2016,03,15,03,18,8.00
2016,03,15,03,19,7.60
2016,03,15,03,20,8.30
2016,03,15,03,21,7.60
2016,03,15,03,22,5.60
2016,03,15,03,23,8.20
2016,03,15,03,24,10.00
2016,03,15,03,25,8.10
2016,03,15,03,26,9.90
2016,03,15,03,27,6.00
2016,03,15,03,28,8.10
2016,03,15,03,29,4.70
2016,03,15,03,30,4.60
2016,03,15,03,31,5.90
2016,03,15,03,32,6.80
2016,03,15,03,33,6.30
2016,03,15,03,34,4.10
2016,03,15,03,35,5.70
2016,03,15,03,36,4.40
2016,03,15,03,37,3.40
2016,03,15,03,38,4.40
2016,03,15,03,39,6.90
2016,03,15,03,40,5.10
2016,03,15,03,41,4.40
2016,03,15,03,42,2.80
2016,03,15,03,43,1.50
2016,03,15,03,44,2.70
2016,03,15,03,45,3.50
2016,03,15,03,46,2.50
2016,03,15,03,47,3.00
2016,03,15,03,48,4.90
2016,03,15,03,49,3.10
2016,03,15,03,50,5.50
2016,03,15,03,51,4.50
2016,03,15,03,52,8.80
2016,03,15,03,53,5.00
2016,03,15,03,54,7.40
2016,03,15,03,55,7.30
2016,03,15,03,56,8.80
2016,03,15,03,57,8.70
2016,03,15,03,58,6.00
2016,03,15,03,59,9.90
2016,03,15,04,00,8.20
2016,03,15,04,01,7.50
2016,03,15,04,02,4.40
2016,03,15,04,03,6.00
2016,03,15,04,04,6.80
2016,03,15,04,05,7.40
2016,03,15,04,06,7.20
2016,03,15,04,07,4.60
2016,03,15,04,08,8.00
2016,03,15,04,09,5.00
2016,03,15,04,10,5.20
2016,03,15,04,11,9.40
2016,03,15,04,12,10.10
2016,03,15,04,13,6.60
2016,03,15,04,14,6.80
2016,03,15,04,15,8.70
2016,03,15,04,16,8.10
2016,03,15,04,17,8.80
2016,03,15,04,18,7.80
2016,03,15,04,19,9.80
2016,03,15,04,20,8.30
2016,03,15,04,21,6.20
2016,03,15,04,22,3.90
2016,03,15,04,23,4.00
2016,03,15,04,24,8.60
2016,03,15,04,25,8.90
2016,03,15,04,26,7.00
2016,03,15,04,27,5.20
2016,03,15,04,28,7.70
2016,03,15,04,29,6.30
2016,03,15,04,30,8.50
2016,03,15,04,31,6.70
2016,03,15,04,32,6.00
2016,03,15,04,33,8.30
2016,03,15,04,34,8.60
2016,03,15,04,35,8.60
2016,03,15,04,36,7.60
2016,03,15,04,37,8.20
2016,03,15,04,38,7.20
2016,03,15,04,39,6.20
2016,03,15,04,40,7.10
2016,03,15,04,41,4.70
2016,03,15,04,42,8.50
2016,03,15,04,43,5.60
2016,03,15,04,44,7.90
2016,03,15,04,45,5.40
2016,03,15,04,46,5.60
2016,03,15,04,47,7.10
2016,03,15,04,48,6.00
2016,03,15,04,49,10.50
2016,03,15,04,50,8.40
2016,03,15,04,51,6.10
2016,03,15,04,52,6.70
2016,03,15,04,53,4.00
2016,03,15,04,54,5.10
2016,03,15,04,55,6.60
2016,03,15,04,56,6.90
2016,03,15,04,57,6.00
2016,03,15,04,58,5.30
2016,03,15,04,59,6.20
2016,03,15,05,00,3.70
2016,03,15,05,01,6.50
2016,03,15,05,02,6.60
2016,03,15,05,03,5.10
2016,03,15,05,04,5.60
2016,03,15,05,05,7.80
2016,03,15,05,06,4.80
2016,03,15,05,07,4.10
2016,03,15,05,08,5.10
2016,03,15,05,09,4.60
2016,03,15,05,10,2.90
2016,03,15,05,11,2.40
2016,03,15,05,12,3.50
2016,03,15,05,13,3.10
2016,03,15,05,14,5.60
2016,03,15,05,15,4.50
2016,03,15,05,16,3.80
2016,03,15,05,17,3.90
2016,03,15,05,18,4.00
2016,03,15,05,19,2.30
2016,03,15,05,20,2.10
2016,03,15,05,21,0.80
2016,03,15,05,22,3.90
2016,03,15,05,23,4.40
2016,03,15,05,24,4.00
2016,03,15,05,25,4.80
2016,03,15,05,26,3.50
2016,03,15,05,27,2.70
2016,03,15,05,28,2.90
2016,03,15,05,29,5.00
2016,03,15,05,30,4.20
2016,03,15,05,31,3.00
2016,03,15,05,32,3.40
2016,03,15,05,33,3.10
2016,03,15,05,34,2.30
2016,03,15,05,35,2.80
2016,03,15,05,36,3.00
2016,03,15,05,37,3.60
2016,03,15,05,38,3.30
2016,03,15,05,39,3.50
2016,03,15,05,40,5.40
2016,03,15,05,41,4.20
2016,03,15,05,42,3.00
2016,03,15,05,43,3.90
2016,03,15,05,44,3.10
2016,03,15,05,45,4.70
2016,03,15,05,46,4.20
2016,03,15,05,47,3.50
2016,03,15,05,48,2.10
2016,03,15,05,49,2.70
2016,03,15,05,50,3.90
2016,03,15,05,51,2.90
2016,03,15,05,52,2.30
2016,03,15,05,53,2.60
2016,03,15,05,54,3.90
2016,03,15,05,55,2.80
2016,03,15,05,56,3.90
2016,03,15,05,57,3.50
2016,03,15,05,58,3.20
2016,03,15,05,59,2.30
2016,03,15,06,00,3.10
2016,03,15,06,01,3.40
2016,03,15,06,02,2.40
2016,03,15,06,03,2.50
2016,03,15,06,04,2.30
2016,03,15,06,05,3.20
2016,03,15,06,06,3.40
2016,03,15,06,07,3.50
2016,03,15,06,08,3.60
2016,03,15,06,09,3.70
2016,03,15,06,10,3.70
2016,03,15,06,11,3.20
2016,03,15,06,12,2.30
2016,03,15,06,13,3.10
2016,03,15,06,14,3.00
2016,03,15,06,15,3.00
2016,03,15,06,16,3.40
2016,03,15,06,17,3.70
2016,03,15,06,18,3.60
2016,03,15,06,19,3.40
2016,03,15,06,20,3.00
2016,03,15,06,21,3.50
2016,03,15,06,22,2.60
2016,03,15,06,23,3.00
2016,03,15,06,24,3.00
2016,03,15,06,25,3.30
2016,03,15,06,26,2.60
2016,03,15,06,27,3.80
2016,03,15,06,28,3.40
2016,03,15,06,29,2.80
2016,03,15,06,30,2.60
2016,03,15,06,31,2.50
2016,03,15,06,32,2.00
2016,03,15,06,33,3.20
2016,03,15,06,34,4.20
2016,03,15,06,35,2.50
2016,03,15,06,36,3.50
2016,03,15,06,37,5.30
2016,03,15,06,38,4.50
2016,03,15,06,39,3.40
2016,03,15,06,40,4.70
2016,03,15,06,41,5.20
2016,03,15,06,42,4.30
2016,03,15,06,43,5.00
2016,03,15,06,44,3.30
2016,03,15,06,45,4.50
2016,03,15,06,46,3.30
2016,03,15,06,47,3.30
2016,03,15,06,48,4.90
2016,03,15,06,49,4.10
2016,03,15,06,50,3.40
2016,03,15,06,51,3.40
2016,03,15,06,52,6.30
2016,03,15,06,53,3.90
2016,03,15,06,54,6.10
2016,03,15,06,55,3.90
2016,03,15,06,56,3.50
2016,03,15,06,57,4.90
2016,03,15,06,58,6.30
2016,03,15,06,59,5.10
2016,03,15,07,00,3.80
2016,03,15,07,01,3.50
2016,03,15,07,02,3.70
2016,03,15,07,03,3.40
2016,03,15,07,04,3.90
2016,03,15,07,05,4.00
2016,03,15,07,06,4.90
2016,03,15,07,07,3.90
2016,03,15,07,08,1.70
2016,03,15,07,09,2.30
2016,03,15,07,10,2.90
2016,03,15,07,11,1.70
2016,03,15,07,12,3.00
2016,03,15,07,13,2.00
2016,03,15,07,14,2.50
2016,03,15,07,15,3.10
2016,03,15,07,16,1.90
2016,03,15,07,17,1.50
2016,03,15,07,18,0.70
2016,03,15,07,19,1.40
2016,03,15,07,20,1.90
2016,03,15,07,21,2.50
2016,03,15,07,22,1.50
2016,03,15,07,23,1.20
2016,03,15,07,24,0.00
2016,03,15,07,25,0.00
2016,03,15,07,26,0.30
2016,03,15,07,27,0.00
2016,03,15,07,28,0.00
2016,03,15,07,29,0.20
2016,03,15,07,30,0.00
2016,03,15,07,31,0.20
2016,03,15,07,32,0.00
2016,03,15,07,33,0.00
2016,03,15,07,34,0.00
2016,03,15,07,35,0.00
2016,03,15,07,36,0.00
2016,03,15,07,37,0.00
2016,03,15,07,38,0.00
2016,03,15,07,39,0.00
2016,03,15,07,40,0.00
2016,03,15,07,41,0.00
2016,03,15,07,42,0.00
2016,03,15,07,43,0.00
2016,03,15,07,44,0.00
2016,03,15,07,45,0.00
2016,03,15,07,46,0.00
2016,03,15,07,47,0.60
2016,03,15,07,48,0.20
2016,03,15,07,49,0.10
2016,03,15,07,50,0.00
2016,03,15,07,51,0.00
2016,03,15,07,52,0.00
2016,03,15,07,53,0.60
2016,03,15,07,54,0.30
2016,03,15,07,55,0.10
2016,03,15,07,56,1.00
2016,03,15,07,57,0.80
2016,03,15,07,58,0.00
2016,03,15,07,59,0.20
2016,03,15,08,00,2.10
2016,03,15,08,01,1.10
2016,03,15,08,02,0.50
2016,03,15,08,03,0.20
2016,03,15,08,04,0.40
2016,03,15,08,05,0.50
2016,03,15,08,06,0.50
2016,03,15,08,07,0.00
2016,03,15,08,08,0.00
2016,03,15,08,09,0.20
2016,03,15,08,10,0.10
2016,03,15,08,11,0.00
2016,03,15,08,12,0.00
2016,03,15,08,13,0.00
2016,03,15,08,14,0.00
2016,03,15,08,15,1.40
2016,03,15,08,16,1.60
2016,03,15,08,17,1.40
2016,03,15,08,18,1.70
2016,03,15,08,19,0.70
2016,03,15,08,20,0.60
2016,03,15,08,21,0.10
2016,03,15,08,22,0.20
2016,03,15,08,23,0.20
2016,03,15,08,24,0.00
2016,03,15,08,25,0.00
2016,03,15,08,26,0.20
2016,03,15,08,27,1.00
2016,03,15,08,28,1.10
2016,03,15,08,29,1.80
2016,03,15,08,30,0.60
2016,03,15,08,31,0.00
2016,03,15,08,32,0.00
2016,03,15,08,33,0.00
2016,03,15,08,34,0.30
2016,03,15,08,35,1.60
2016,03,15,08,36,1.70
2016,03,15,08,37,1.90
2016,03,15,08,38,1.40
2016,03,15,08,39,5.60
2016,03,15,08,40,2.70
2016,03,15,08,41,4.30
2016,03,15,08,42,4.00
2016,03,15,08,43,5.60
2016,03,15,08,44,5.80
2016,03,15,08,45,4.90
2016,03,15,08,46,3.00
2016,03,15,08,47,3.50
2016,03,15,08,48,4.20
2016,03,15,08,49,5.40
2016,03,15,08,50,3.40
2016,03,15,08,51,7.10
2016,03,15,08,52,4.70
2016,03,15,08,53,5.80
2016,03,15,08,54,6.80
2016,03,15,08,55,5.90
2016,03,15,08,56,5.40
2016,03,15,08,57,10.00
2016,03,15,08,58,7.90
2016,03,15,08,59,6.40
2016,03,15,09,00,6.90
2016,03,15,09,01,8.90
2016,03,15,09,02,4.70
2016,03,15,09,03,6.30
2016,03,15,09,04,8.20
2016,03,15,09,05,7.50
2016,03,15,09,06,6.80
2016,03,15,09,07,6.80
2016,03,15,09,08,7.30
2016,03,15,09,09,7.00
2016,03,15,09,10,7.40
2016,03,15,09,11,4.60
2016,03,15,09,12,7.50
2016,03,15,09,13,8.70
2016,03,15,09,14,7.00
2016,03,15,09,15,8.60
2016,03,15,09,16,9.70
2016,03,15,09,17,8.00
2016,03,15,09,18,5.50
2016,03,15,09,19,8.70
2016,03,15,09,20,6.00
2016,03,15,09,21,4.40
2016,03,15,09,22,5.20
2016,03,15,09,23,7.10
2016,03,15,09,24,5.80
2016,03,15,09,25,6.80
2016,03,15,09,26,8.10
2016,03,15,09,27,6.00
2016,03,15,09,28,6.20
2016,03,15,09,29,6.70
2016,03,15,09,30,8.80
2016,03,15,09,31,8.00
2016,03,15,09,32,7.10
2016,03,15,09,33,8.10
2016,03,15,09,34,10.50
2016,03,15,09,35,8.70
2016,03,15,09,36,4.90
2016,03,15,09,37,5.60
2016,03,15,09,38,10.10
2016,03,15,09,39,7.30
2016,03,15,09,40,6.80
2016,03,15,09,41,3.20
2016,03,15,09,42,3.10
2016,03,15,09,43,5.00
2016,03,15,09,44,6.00
2016,03,15,09,45,6.70
2016,03,15,09,46,6.80
2016,03,15,09,47,6.50
2016,03,15,09,48,5.30
2016,03,15,09,49,6.20
2016,03,15,09,50,8.50
2016,03,15,09,51,5.70
2016,03,15,09,52,7.00
2016,03,15,09,53,3.40
2016,03,15,09,54,6.70
2016,03,15,09,55,4.60
2016,03,15,09,56,6.70
2016,03,15,09,57,10.20
2016,03,15,09,58,8.50
2016,03,15,09,59,7.00
2016,03,15,10,00,7.60
2016,03,15,10,01,8.60
2016,03,15,10,02,7.80
2016,03,15,10,03,9.90
2016,03,15,10,04,7.50
2016,03,15,10,05,7.50
2016,03,15,10,06,8.50
2016,03,15,10,07,8.60
2016,03,15,10,08,6.00
2016,03,15,10,09,6.40
2016,03,15,10,10,6.90
2016,03,15,10,11,9.10
2016,03,15,10,12,9.00
2016,03,15,10,13,6.90
2016,03,15,10,14,9.20
2016,03,15,10,15,9.20
2016,03,15,10,16,7.90
2016,03,15,10,17,10.50
2016,03,15,10,18,9.30
2016,03,15,10,19,7.40
2016,03,15,10,20,9.00
2016,03,15,10,21,6.10
2016,03,15,10,22,7.30
2016,03,15,10,23,8.90
2016,03,15,10,24,8.40
2016,03,15,10,25,9.30
2016,03,15,10,26,6.90
2016,03,15,10,27,7.70
2016,03,15,10,28,5.70
2016,03,15,10,29,10.60
2016,03,15,10,30,8.20
2016,03,15,10,31,9.70
2016,03,15,10,32,10.50
2016,03,15,10,33,9.90
2016,03,15,10,34,5.60
2016,03,15,10,35,6.40
2016,03,15,10,36,5.40
2016,03,15,10,37,5.10
2016,03,15,10,38,5.30
2016,03,15,10,39,4.30
2016,03,15,10,40,7.40
2016,03,15,10,41,4.30
2016,03,15,10,42,3.30
2016,03,15,10,43,4.20
2016,03,15,10,44,6.90
2016,03,15,10,45,6.80
2016,03,15,10,46,6.20
2016,03,15,10,47,7.00
2016,03,15,10,48,6.90
2016,03,15,10,49,7.00
2016,03,15,10,50,6.00
2016,03,15,10,51,7.40
2016,03,15,10,52,5.70
2016,03,15,10,53,4.30
2016,03,15,10,54,6.70
2016,03,15,10,55,7.10
2016,03,15,10,56,10.90
2016,03,15,10,57,12.60
2016,03,15,10,58,10.40
2016,03,15,10,59,10.00
2016,03,15,11,00,5.00
2016,03,15,11,01,9.30
2016,03,15,11,02,8.90
2016,03,15,11,03,11.90
2016,03,15,11,04,11.00
2016,03,15,11,05,10.20
2016,03,15,11,06,9.60
2016,03,15,11,07,6.90
2016,03,15,11,08,10.10
2016,03,15,11,09,9.80
2016,03,15,11,10,8.20
2016,03,15,11,11,11.70
2016,03,15,11,12,13.50
2016,03,15,11,13,11.20
2016,03,15,11,14,9.30
2016,03,15,11,15,5.80
2016,03,15,11,16,8.10
2016,03,15,11,17,3.80
2016,03,15,11,18,7.50
2016,03,15,11,19,4.90
2016,03,15,11,20,7.10
2016,03,15,11,21,8.50
2016,03,15,11,22,6.10
2016,03,15,11,23,6.50
2016,03,15,11,24,5.70
2016,03,15,11,25,6.60
2016,03,15,11,26,6.50
2016,03,15,11,27,8.20
2016,03,15,11,28,12.30
2016,03,15,11,29,10.80
2016,03,15,11,30,12.10
2016,03,15,11,31,8.40
2016,03,15,11,32,5.20
2016,03,15,11,33,5.40
2016,03,15,11,34,7.30
2016,03,15,11,35,10.50
2016,03,15,11,36,10.60
2016,03,15,11,37,8.40
2016,03,15,11,38,8.90
2016,03,15,11,39,7.80
2016,03,15,11,40,9.10
2016,03,15,11,41,6.20
2016,03,15,11,42,7.10
2016,03,15,11,43,9.70
2016,03,15,11,44,9.90
2016,03,15,11,45,6.70
2016,03,15,11,46,6.50
2016,03,15,11,47,5.60
2016,03,15,11,48,10.90
2016,03,15,11,49,6.90
2016,03,15,11,50,8.40
2016,03,15,11,51,5.00
2016,03,15,11,52,9.00
2016,03,15,11,53,8.60
2016,03,15,11,54,7.20
2016,03,15,11,55,7.60
2016,03,15,11,56,7.20
2016,03,15,11,57,7.20
2016,03,15,11,58,6.30
2016,03,15,11,59,6.70
2016,03,15,12,00,6.60
2016,03,15,12,01,11.30
2016,03,15,12,02,9.60
2016,03,15,12,03,10.90
2016,03,15,12,04,8.30
2016,03,15,12,05,8.40
2016,03,15,12,06,10.30
2016,03,15,12,07,7.90
2016,03,15,12,08,8.10
2016,03,15,12,09,6.50
2016,03,15,12,10,7.70
2016,03,15,12,11,9.10
2016,03,15,12,12,6.30
2016,03,15,12,13,10.20
2016,03,15,12,14,12.30
2016,03,15,12,15,10.60
2016,03,15,12,16,10.10
2016,03,15,12,17,13.00
2016,03,15,12,18,11.80
2016,03,15,12,19,8.10
2016,03,15,12,20,8.50
2016,03,15,12,21,12.00
2016,03,15,12,22,11.00
2016,03,15,12,23,9.50
2016,03,15,12,24,7.80
2016,03,15,12,25,6.10
2016,03,15,12,26,7.80
2016,03,15,12,27,6.00
2016,03,15,12,28,10.90
2016,03,15,12,29,8.60
2016,03,15,12,30,11.10
2016,03,15,12,31,9.30
2016,03,15,12,32,9.20
2016,03,15,12,33,9.70
2016,03,15,12,34,11.00
2016,03,15,12,35,12.30
2016,03,15,12,36,9.00
2016,03,15,12,37,10.80
2016,03,15,12,38,9.60
2016,03,15,12,39,8.00
2016,03,15,12,40,8.50
2016,03,15,12,41,8.30
2016,03,15,12,42,10.90
2016,03,15,12,43,9.30
2016,03,15,12,44,6.70
2016,03,15,12,45,10.40
2016,03,15,12,46,7.20
2016,03,15,12,47,6.80
2016,03,15,12,48,10.80
2016,03,15,12,49,5.80
2016,03,15,12,50,7.40
2016,03,15,12,51,7.00
2016,03,15,12,52,10.10
2016,03,15,12,53,7.20
2016,03,15,12,54,9.50
2016,03,15,12,55,7.40
2016,03,15,12,56,7.10
2016,03,15,12,57,8.70
2016,03,15,12,58,8.50
2016,03,15,12,59,9.70
2016,03,15,13,00,11.20
2016,03,15,13,01,7.80
2016,03,15,13,02,6.10
2016,03,15,13,03,10.00
2016,03,15,13,04,11.30
2016,03,15,13,05,8.40
2016,03,15,13,06,8.70
2016,03,15,13,07,14.20
2016,03,15,13,08,12.50
2016,03,15,13,09,15.00
2016,03,15,13,10,12.80
2016,03,15,13,11,11.30
2016,03,15,13,12,9.20
2016,03,15,13,13,9.10
2016,03,15,13,14,11.60
2016,03,15,13,15,16.20
2016,03,15,13,16,14.20
2016,03,15,13,17,10.60
2016,03,15,13,18,8.20
2016,03,15,13,19,12.00
2016,03,15,13,20,11.20
2016,03,15,13,21,15.40
2016,03,15,13,22,11.20
2016,03,15,13,23,7.90
2016,03,15,13,24,8.20
2016,03,15,13,25,5.40
2016,03,15,13,26,8.40
2016,03,15,13,27,8.20
2016,03,15,13,28,9.90
2016,03,15,13,29,9.70
2016,03,15,13,30,9.20
2016,03,15,13,31,10.50
2016,03,15,13,32,6.40
2016,03,15,13,33,9.30
2016,03,15,13,34,7.30
2016,03,15,13,35,6.40
2016,03,15,13,36,6.40
2016,03,15,13,37,6.80
2016,03,15,13,38,5.70
2016,03,15,13,39,7.60
2016,03,15,13,40,6.50
2016,03,15,13,41,7.70
2016,03,15,13,42,8.40
2016,03,15,13,43,6.70
2016,03,15,13,44,5.30
2016,03,15,13,45,6.00
2016,03,15,13,46,9.10
2016,03,15,13,47,10.30
2016,03,15,13,48,10.40
2016,03,15,13,49,8.80
2016,03,15,13,50,11.90
2016,03,15,13,51,8.60
2016,03,15,13,52,9.90
2016,03,15,13,53,6.50
2016,03,15,13,54,5.50
2016,03,15,13,55,9.00
2016,03,15,13,56,10.20
2016,03,15,13,57,13.00
2016,03,15,13,58,8.50
2016,03,15,13,59,9.40
2016,03,15,14,00,9.10
2016,03,15,14,01,6.30
2016,03,15,14,02,6.80
2016,03,15,14,03,7.90
2016,03,15,14,04,8.20
2016,03,15,14,05,11.20
2016,03,15,14,06,11.10
2016,03,15,14,07,10.10
2016,03,15,14,08,11.50
2016,03,15,14,09,12.50
2016,03,15,14,10,12.70
2016,03,15,14,11,9.50
2016,03,15,14,12,11.60
2016,03,15,14,13,6.60
2016,03,15,14,14,6.60
2016,03,15,14,15,9.70
2016,03,15,14,16,10.80
2016,03,15,14,17,7.40
2016,03,15,14,18,8.50
2016,03,15,14,19,10.80
2016,03,15,14,20,12.20
2016,03,15,14,21,11.20
2016,03,15,14,22,7.70
2016,03,15,14,23,7.60
2016,03,15,14,24,6.90
2016,03,15,14,25,8.80
2016,03,15,14,26,13.40
2016,03,15,14,27,10.30
2016,03,15,14,28,6.70
2016,03,15,14,29,9.70
2016,03,15,14,30,10.60
2016,03,15,14,31,10.70
2016,03,15,14,32,12.60
2016,03,15,14,33,10.00
2016,03,15,14,34,9.70
2016,03,15,14,35,5.70
2016,03,15,14,36,6.80
2016,03,15,14,37,11.70
2016,03,15,14,38,5.80
2016,03,15,14,39,5.70
2016,03,15,14,40,11.10
2016,03,15,14,41,8.70
2016,03,15,14,42,11.40
2016,03,15,14,43,12.00
2016,03,15,14,44,8.90
2016,03,15,14,45,6.60
2016,03,15,14,46,8.40
2016,03,15,14,47,6.10
2016,03,15,14,48,7.30
2016,03,15,14,49,14.20
2016,03,15,14,50,12.50
2016,03,15,14,51,13.80
2016,03,15,14,52,11.80
2016,03,15,14,53,9.10
2016,03,15,14,54,11.40
2016,03,15,14,55,10.80
2016,03,15,14,56,12.60
2016,03,15,14,57,7.90
2016,03,15,14,58,9.80
2016,03,15,14,59,9.90
2016,03,15,15,00,11.80
2016,03,15,15,01,14.50
2016,03,15,15,02,15.90
2016,03,15,15,03,14.80
2016,03,15,15,04,10.50
2016,03,15,15,05,10.00
2016,03,15,15,06,15.30
2016,03,15,15,07,12.40
2016,03,15,15,08,11.40
2016,03,15,15,09,13.40
2016,03,15,15,10,10.90
2016,03,15,15,11,10.90
2016,03,15,15,12,7.30
2016,03,15,15,13,11.70
2016,03,15,15,14,14.20
2016,03,15,15,15,9.20
2016,03,15,15,16,8.50
2016,03,15,15,17,9.70
2016,03,15,15,18,12.30
2016,03,15,15,19,12.50
2016,03,15,15,20,10.40
2016,03,15,15,21,9.20
2016,03,15,15,22,11.80
2016,03,15,15,23,12.00
2016,03,15,15,24,10.60
2016,03,15,15,25,12.60
2016,03,15,15,26,9.30
2016,03,15,15,27,14.90
2016,03,15,15,28,10.90
2016,03,15,15,29,9.20
2016,03,15,15,30,13.70
2016,03,15,15,31,16.40
2016,03,15,15,32,11.40
2016,03,15,15,33,9.00
2016,03,15,15,34,10.20
2016,03,15,15,35,16.90
2016,03,15,15,36,13.00
2016,03,15,15,37,10.40
2016,03,15,15,38,10.50
2016,03,15,15,39,8.50
2016,03,15,15,40,11.40
2016,03,15,15,41,9.40
2016,03,15,15,42,15.10
2016,03,15,15,43,13.40
2016,03,15,15,44,12.70
2016,03,15,15,45,12.70
2016,03,15,15,46,6.80
2016,03,15,15,47,9.30
2016,03,15,15,48,10.60
2016,03,15,15,49,9.20
2016,03,15,15,50,10.00
2016,03,15,15,51,14.80
2016,03,15,15,52,7.80
2016,03,15,15,53,9.30
2016,03,15,15,54,17.10
2016,03,15,15,55,9.30
2016,03,15,15,56,12.30
2016,03,15,15,57,12.80
2016,03,15,15,58,8.60
2016,03,15,15,59,10.30
2016,03,15,16,00,13.00
2016,03,15,16,01,9.40
2016,03,15,16,02,9.90
2016,03,15,16,03,13.10
2016,03,15,16,04,11.60
2016,03,15,16,05,11.80
2016,03,15,16,06,13.60
2016,03,15,16,07,12.30
2016,03,15,16,08,10.30
2016,03,15,16,09,9.30
2016,03,15,16,10,11.50
2016,03,15,16,11,12.40
2016,03,15,16,12,10.20
2016,03,15,16,13,6.40
2016,03,15,16,14,12.40
2016,03,15,16,15,13.60
2016,03,15,16,16,10.80
2016,03,15,16,17,10.80
2016,03,15,16,18,12.80
2016,03,15,16,19,12.50
2016,03,15,16,20,10.30
2016,03,15,16,21,10.90
2016,03,15,16,22,12.60
2016,03,15,16,23,8.90
2016,03,15,16,24,11.70
2016,03,15,16,25,14.60
2016,03,15,16,26,11.90
2016,03,15,16,27,10.40
2016,03,15,16,28,10.70
2016,03,15,16,29,12.20
2016,03,15,16,30,13.50
2016,03,15,16,31,9.50
2016,03,15,16,32,13.00
2016,03,15,16,33,10.70
2016,03,15,16,34,7.90
2016,03,15,16,35,11.80
2016,03,15,16,36,11.00
2016,03,15,16,37,12.00
2016,03,15,16,38,11.50
2016,03,15,16,39,12.40
2016,03,15,16,40,18.10
2016,03,15,16,41,13.50
2016,03,15,16,42,9.10
2016,03,15,16,43,11.60
2016,03,15,16,44,13.60
2016,03,15,16,45,14.20
2016,03,15,16,46,12.00
2016,03,15,16,47,8.40
2016,03,15,16,48,13.50
2016,03,15,16,49,10.20
2016,03,15,16,50,13.60
2016,03,15,16,51,12.60
2016,03,15,16,52,11.50
2016,03,15,16,53,9.00
2016,03,15,16,54,11.40
2016,03,15,16,55,9.30
2016,03,15,16,56,5.80
2016,03,15,16,57,8.50
2016,03,15,16,58,9.40
2016,03,15,16,59,9.30
2016,03,15,17,00,11.00
2016,03,15,17,01,12.00
2016,03,15,17,02,12.80
2016,03,15,17,03,11.40
2016,03,15,17,04,11.90
2016,03,15,17,05,10.90
2016,03,15,17,06,10.30
2016,03,15,17,07,13.40
2016,03,15,17,08,10.80
2016,03,15,17,09,10.30
2016,03,15,17,10,13.00
2016,03,15,17,11,14.20
2016,03,15,17,12,13.80
2016,03,15,17,13,12.20
2016,03,15,17,14,16.00
2016,03,15,17,15,12.00
2016,03,15,17,16,7.80
2016,03,15,17,17,12.30
2016,03,15,17,18,6.60
2016,03,15,17,19,8.90
2016,03,15,17,20,8.70
2016,03,15,17,21,10.30
2016,03,15,17,22,10.10
2016,03,15,17,23,7.90
2016,03,15,17,24,11.50
2016,03,15,17,25,13.30
2016,03,15,17,26,11.80
2016,03,15,17,27,16.40
2016,03,15,17,28,13.10
2016,03,15,17,29,9.70
2016,03,15,17,30,12.70
2016,03,15,17,31,10.00
2016,03,15,17,32,11.40
2016,03,15,17,33,8.40
2016,03,15,17,34,5.90
2016,03,15,17,35,6.00
2016,03,15,17,36,15.20
2016,03,15,17,37,14.30
2016,03,15,17,38,15.70
2016,03,15,17,39,11.70
2016,03,15,17,40,11.10
2016,03,15,17,41,8.50
2016,03,15,17,42,5.80
2016,03,15,17,43,6.80
2016,03,15,17,44,9.80
2016,03,15,17,45,9.90
2016,03,15,17,46,9.00
2016,03,15,17,47,9.20
2016,03,15,17,48,9.80
2016,03,15,17,49,7.10